DELTA 1 DEB

Satellite information

Favourite Embed

Satellite Type and Status

DEBRISIN ORBIT

Key statistics

Satellite DELTA 1 DEB at a glance.

Uptime

17395

Days in orbit

Revolutions

≈ 14.0

Per day

Orbit

SSO

Sun Synchronous Orbit

Inclination

98.7

Latest

Satellite identification and parameters

Extended collection of information and parameters for DELTA 1 DEB.

Object identification

Identified? True

Debris? True

Object name: DELTA 1 DEB

International designator: 1978-026DK

Object number (NORAD): 12266

Object ID (CCSDS): 12266

Country: UNITED STATES OF AMERICA (US)

Current information (Y/N): Y

RCS size: SMALL

Orbital parameters

Period: 103.023 minutes

Inclination: 98.7459 deg

SMA: 7279.738 km

Apoapsis: 1005.617 km

Periapsis: 797.589 km

RAAN: 85.6829 deg

Eccentricy: 0.01428813

Argument of periapsis: 353.5801 deg

Mean anomaly: 6.3529 deg

Mean motion: 13.97748865 rev/day

Mean motion (dot): 0.00001612 rev/day2

B* drag term: 0.0010733068 1/REarth

Two-line elements (TLE)

Creation date: Oct. 19, 2025, 2:20 a.m.

Reference frame: TEME

Reference center: EARTH

Epoch: Oct. 18, 2025, 9:51 a.m. UTC

TLE line 0: 0 DELTA 1 DEB

TLE line 1: 1 12266U 78026DK 25291.41101666 .00001612 00000-0 10733-2 0 9990

TLE line 2: 2 12266 98.7459 85.6829 0142881 353.5801 6.3529 13.97748865250110

Live tracking on map

Real-time ground track for satellite DELTA 1 DEB.

In-orbit conjunctions

A list of the most updated potential collisions computed for object DELTA 1 DEB.

Target Orbit TCA Probability of collision Miss distance Type
METEOR 2-11 DEB LEO 2025-10-18 05:08:55 0.0001006543 161.0 (m) DEBRIS
METEOR 2-5 DEB LEO 2024-12-26 00:03:33 0.0001027643 217.0 (m) DEBRIS
MSX SSO 2024-09-25 12:38:09 0.0001034051 525.0 (m) PAYLOAD
SL-16 R/B LEO 2024-07-25 13:33:02 0.0001056366 363.0 (m) ROCKET BODY

Associated space launch

Earth observation satellite

DELTA 1 DEB was lifted into orbit during the mission ‘Delta 2910 | Landsat 3’, on board a Delta 2910 space rocket.

The launch took place on March 5, 1978, 5:54 p.m. from Space Launch Complex 2W.

For more information about the launch, click the button.

Launch to space Delta 2910 | Landsat 3
Delta 2910 | Landsat 3

Agency: N/A

Status: Launch Successful

Launch date: March 5, 1978, 5:54 p.m. UTC

Rocket: Delta 2910

Launch pad: Space Launch Complex 2W

Location: Vandenberg SFB, CA, USA

...

Latest news about this satellite

There are no fresh news available about this satellite. Check back as we update our databases every day.


Newsletter sign-up

Weekly statistics, charts and insights to help you stay on top of the space industry.